Chehalis, WA
on Monday, February 4, 2013

Monday
Previous Day Next Day
Daily Summary
 ActualAverage (KOLM)Record (KOLM)
Temperature
Mean Temperature °F 40°F  
Max Temperature 53°F 48°F 60°F (2009)
Min Temperature 41°F 33°F 10°F (1989)
Degree Days
Heating Degree Days 18 24  
Month to date heating degree days 97  
Since 1 July heating degree days 3148  
Cooling Degree Days 0 0  
Month to date cooling degree days 0  
Year to date cooling degree days 0  
Moisture
Dew Point 41°F   
Average Humidity 82    
Maximum Humidity 100    
Minimum Humidity 62    
Precipitation
Precipitation 0.00 in 0.20 in 1.00 in (1965)
Month to date precipitation 0.80  
Year to date precipitation 8.64  
Wind
Wind Speed 3 mph   
Max Wind Speed 9 mph   
Max Gust Speed mph   
Visibility 8 miles   
Events     

Key: T is trace of precipitation, MM is missing value
Source: NWS Daily Summary
Time(PST)TemperatureDew PointHumidity Pressure Visibility Wind DirectionWind SpeedGust SpeedPrecipitationEvents Conditions
12:15 AM 44.6°F 41.0°F 87% 30.24 in 8.0 miles SSW 3.5 mph - N/A   Overcast
12:35 AM 44.6°F 41.0°F 87% 30.23 in 8.0 miles Calm Calm - N/A   Overcast
12:55 AM 42.8°F 41.0°F 93% 30.23 in 8.0 miles Calm Calm - N/A   Overcast
1:15 AM 42.8°F 41.0°F 93% 30.23 in 7.0 miles Calm Calm - N/A   Overcast
3:15 AM 42.8°F 41.0°F 93% 30.23 in 4.0 miles WSW 3.5 mph - N/A   Overcast
3:35 AM 42.8°F 41.0°F 93% 30.23 in 4.0 miles Calm Calm - N/A   Overcast
3:55 AM 42.8°F 41.0°F 93% 30.21 in 7.0 miles South 4.6 mph - N/A   Overcast
4:35 AM 44.6°F 41.0°F 87% 30.20 in 4.0 miles South 5.8 mph - N/A   Overcast
4:55 AM 44.6°F 41.0°F 87% 30.20 in 5.0 miles SSW 3.5 mph - N/A   Overcast
5:15 AM 44.6°F 41.0°F 87% 30.20 in 5.0 miles Calm Calm - N/A   Overcast
5:35 AM 44.6°F 41.0°F 87% 30.18 in 5.0 miles South 4.6 mph - N/A   Overcast
5:55 AM 44.6°F 41.0°F 87% 30.19 in 5.0 miles Calm Calm - N/A   Overcast
6:15 AM 44.6°F 41.0°F 87% 30.18 in 7.0 miles South 3.5 mph - N/A   Overcast
6:35 AM 44.6°F 41.0°F 87% 30.19 in 5.0 miles Calm Calm - N/A   Overcast
6:55 AM 44.6°F 41.0°F 87% 30.18 in 6.0 miles Calm Calm - N/A   Overcast
7:15 AM 44.6°F 41.0°F 87% 30.19 in 5.0 miles Calm Calm - N/A   Overcast
7:35 AM 42.8°F 41.0°F 93% 30.17 in 5.0 miles SSE 3.5 mph - N/A   Overcast
7:55 AM 44.6°F 41.0°F 87% 30.18 in 4.0 miles Calm Calm - N/A   Overcast
8:15 AM 44.6°F 41.0°F 87% 30.18 in 7.0 miles South 4.6 mph - N/A   Overcast
8:35 AM 44.6°F 41.0°F 87% 30.19 in 5.0 miles South 3.5 mph - N/A   Overcast
8:55 AM 44.6°F 41.0°F 87% 30.19 in 6.0 miles South 3.5 mph - N/A   Overcast
9:15 AM 44.6°F 41.0°F 87% 30.17 in 7.0 miles South 5.8 mph - N/A   Mostly Cloudy
9:35 AM 44.6°F 41.0°F 87% 30.17 in 7.0 miles South 5.8 mph - N/A   Partly Cloudy
9:55 AM 46.4°F 41.0°F 81% 30.16 in 5.0 miles SSE 5.8 mph - N/A   Clear
10:35 AM 46.4°F 42.8°F 87% 30.17 in 8.0 miles South 6.9 mph - N/A   Mostly Cloudy
10:55 AM 46.4°F 42.8°F 87% 30.16 in 9.0 miles South 5.8 mph - N/A   Mostly Cloudy
11:15 AM 48.2°F 42.8°F 82% 30.16 in 10.0 miles South 4.6 mph - N/A   Mostly Cloudy
11:35 AM 48.2°F 41.0°F 76% 30.15 in 10.0 miles SSW 4.6 mph - N/A   Mostly Cloudy
11:55 AM 48.2°F 41.0°F 76% 30.14 in 10.0 miles SSE 3.5 mph - N/A   Scattered Clouds
12:15 PM 50.0°F 41.0°F 71% 30.13 in 7.0 miles SSW 3.5 mph - N/A   Clear
12:35 PM 50.0°F 41.0°F 71% 30.12 in 6.0 miles SSW 5.8 mph - N/A   Haze
12:55 PM 51.8°F 41.0°F 67% 30.11 in 9.0 miles South 5.8 mph - N/A   Clear
1:15 PM 51.8°F 41.0°F 67% 30.10 in 10.0 miles Calm Calm - N/A   Clear
1:35 PM 51.8°F 41.0°F 67% 30.08 in 10.0 miles South 3.5 mph - N/A   Clear
1:55 PM 53.6°F 41.0°F 62% 30.07 in 10.0 miles SSW 3.5 mph - N/A   Clear
2:15 PM 53.6°F 41.0°F 62% 30.06 in 10.0 miles SSW 4.6 mph - N/A   Clear
2:35 PM 53.6°F 41.0°F 62% 30.05 in 10.0 miles South 4.6 mph - N/A   Clear
2:55 PM 53.6°F 41.0°F 62% 30.03 in 10.0 miles South 3.5 mph - N/A   Clear
3:15 PM 53.6°F 41.0°F 62% 30.03 in 10.0 miles SW 5.8 mph - N/A   Scattered Clouds
3:35 PM 51.8°F 41.0°F 67% 30.03 in 10.0 miles Calm Calm - N/A   Scattered Clouds
3:55 PM 51.8°F 41.0°F 67% 30.03 in 10.0 miles SW 3.5 mph - N/A   Partly Cloudy
4:15 PM 50.0°F 41.0°F 71% 30.04 in 10.0 miles Calm Calm - N/A   Scattered Clouds
4:35 PM 50.0°F 41.0°F 71% 30.04 in 10.0 miles Calm Calm - N/A   Scattered Clouds
4:55 PM 50.0°F 41.0°F 71% 30.02 in 10.0 miles Calm Calm - N/A   Scattered Clouds
5:15 PM 50.0°F 41.0°F 71% 30.02 in 10.0 miles Calm Calm - N/A   Mostly Cloudy
5:35 PM 48.2°F 42.8°F 82% 30.02 in 10.0 miles Calm Calm - N/A   Overcast
5:55 PM 48.2°F 42.8°F 82% 30.01 in 10.0 miles SE 3.5 mph - N/A   Overcast
6:15 PM 48.2°F 41.0°F 76% 29.97 in 10.0 miles ESE 6.9 mph - N/A   Overcast
6:35 PM 48.2°F 41.0°F 76% 29.93 in 10.0 miles ESE 9.2 mph - N/A   Overcast
7:15 PM 48.2°F 41.0°F 76% 29.94 in 10.0 miles South 4.6 mph - N/A   Overcast
7:55 PM 46.4°F 42.8°F 87% 29.96 in 10.0 miles SSW 3.5 mph - N/A   Partly Cloudy
8:15 PM 46.4°F 41.0°F 81% 29.94 in 10.0 miles South 4.6 mph - N/A   Clear
8:35 PM 46.4°F 41.0°F 81% 29.93 in 10.0 miles South 4.6 mph - N/A   Partly Cloudy
8:55 PM 46.4°F 41.0°F 81% 29.94 in 10.0 miles SW 3.5 mph - N/A   Partly Cloudy
9:15 PM 44.6°F 41.0°F 87% 29.95 in 10.0 miles West 3.5 mph - N/A   Partly Cloudy
9:35 PM 44.6°F 41.0°F 87% 29.94 in 10.0 miles Calm Calm - N/A   Scattered Clouds
9:55 PM 42.8°F 41.0°F 93% 29.94 in 10.0 miles Calm Calm - N/A   Overcast
10:15 PM 41.0°F 39.2°F 93% 29.95 in 10.0 miles Calm Calm - N/A   Mostly Cloudy
10:35 PM 41.0°F 41.0°F 100% 29.94 in 7.0 miles Calm Calm - N/A   Mostly Cloudy
10:55 PM 41.0°F 39.2°F 93% 29.94 in 10.0 miles WSW 3.5 mph - N/A   Overcast
11:15 PM 41.0°F 41.0°F 100% 29.94 in 9.0 miles Calm Calm - N/A   Overcast
11:35 PM 41.0°F 41.0°F 100% 29.94 in 7.0 miles South 3.5 mph - N/A   Overcast
11:55 PM 41.0°F 39.2°F 93% 29.94 in 10.0 miles Calm Calm - N/A   Mostly Cloudy
Moon Phase
Feb. 04 Feb. 10 Feb. 17 Feb. 25 Mar. 04
Sunrise:07:31 AM (PST) Moon Rise:02:18 AM (PST)2/4
Sunset:05:20 PM (PST) Moon Set:11:43 AM (PST)2/4

Copyright © 2014 The Weather Underground, Inc.